Date,TemperatureHighF,TemperatureAvgF,TemperatureLowF,DewpointHighF,DewpointAvgF,DewpointLowF,HumidityHigh,HumidityAvg,HumidityLow,PressureMaxIn,PressureMinIn,WindSpeedMaxMPH,WindSpeedAvgMPH,GustSpeedMaxMPH,PrecipitationSumIn
2013-1-1,28.1,20.7,11.0,19.5,12.1,6.1,81,70,45,30.28,30.15,15,6,18,0.00
2013-1-2,26.9,17.3,10.0,15.3,10.5,5.7,85,75,52,30.31,30.21,19,5,19,0.00
2013-1-3,33.1,26.0,19.4,26.3,20.2,14.2,87,79,65,30.35,30.19,23,8,25,0.00
2013-1-4,34.6,23.4,13.1,25.5,18.5,9.8,88,82,67,30.34,30.25,26,9,26,0.00
2013-1-5,37.5,26.3,17.6,32.3,22.7,15.2,95,86,70,30.33,30.03,20,5,20,0.03
2013-1-6,34.8,27.4,19.3,32.7,24.0,17.5,93,87,78,30.41,29.99,24,8,28,0.00
2013-1-7,37.9,26.3,14.9,28.3,22.0,12.8,94,84,65,30.43,30.20,26,7,30,0.00
2013-1-8,41.6,32.4,23.1,33.9,28.2,20.9,92,85,71,30.25,30.11,19,6,22,0.00
2013-1-9,50.0,38.8,26.1,35.6,29.3,21.4,89,71,40,30.56,30.10,30,8,30,0.00
2013-1-10,43.7,33.7,23.3,40.8,28.6,20.0,97,82,57,30.56,29.93,26,6,26,0.44
2013-1-11,53.2,49.4,41.7,52.7,48.0,40.9,98,95,90,29.93,29.73,24,9,26,0.15
2013-1-12,52.7,43.3,32.3,49.0,39.8,30.1,93,87,79,30.01,29.78,25,8,28,0.10
2013-1-13,32.4,24.9,14.6,30.8,22.5,10.4,95,90,83,30.32,29.90,22,8,22,0.00
2013-1-14,24.4,17.3,12.5,18.1,13.1,9.1,91,83,71,30.54,30.32,15,3,15,0.00
2013-1-15,30.5,21.5,13.1,23.6,17.3,10.1,92,84,70,30.51,30.19,11,2,12,0.00
2013-1-16,36.3,27.6,17.1,28.7,22.6,15.2,93,82,66,30.19,29.94,29,7,29,0.00
2013-1-17,32.8,27.0,19.6,28.6,19.3,13.7,93,74,51,30.47,30.11,22,5,23,0.00
2013-1-18,40.8,30.8,17.7,30.6,24.5,14.4,90,78,65,30.50,30.03,33,10,33,0.00
2013-1-19,48.9,40.5,30.0,39.5,32.7,19.5,82,74,54,30.04,29.81,40,12,42,0.00
2013-1-20,29.9,19.4,14.1,19.9,9.5,6.4,74,65,56,30.35,29.97,33,10,34,0.00
2013-1-21,16.2,10.7,5.0,9.3,2.0,-2.6,83,68,53,30.37,30.22,29,12,33,0.00
2013-1-22,13.0,7.8,0.3,2.4,-0.8,-4.8,80,68,54,30.49,30.36,21,7,21,0.00
2013-1-23,22.1,17.3,12.0,14.5,8.1,1.9,78,67,59,30.44,30.19,25,7,26,0.00
2013-1-24,23.5,16.4,8.1,11.3,5.8,-0.1,74,63,44,30.70,30.39,21,6,21,0.00
2013-1-25,29.2,23.8,18.9,23.0,17.6,10.5,88,77,66,30.47,30.06,20,6,22,0.04
2013-1-26,29.0,21.9,10.8,20.5,14.1,6.7,87,72,51,30.47,30.22,14,4,14,0.00
2013-1-27,37.7,29.2,22.5,36.7,24.8,18.4,96,84,71,30.46,29.99,19,7,23,0.09
2013-1-28,49.5,45.7,37.7,48.7,44.9,36.7,98,97,96,29.99,29.86,24,6,26,0.03
2013-1-29,60.6,56.7,48.2,58.6,55.6,47.7,99,96,92,29.86,29.41,30,11,38,1.51
2013-1-30,52.2,37.7,21.7,51.4,36.1,18.9,99,94,84,29.69,29.23,32,11,37,0.33
2013-1-31,21.7,15.2,6.1,18.9,10.3,1.3,89,80,74,30.25,29.69,32,16,37,0.00